User: anonymous   Login
Location: Tierz
(42.1336°N, 0.3549°W)
Time: 01:28:22
(UTC+00:00)
Language:

Cosmos 2263 Rocket - Orbit

View from above orbital plane
View from above orbital plane
View from above satellite
View from above satellite

Ground track
Ground track

The orbit data is extracted from the following two-line orbital elements,

1 22803U 93059B   21021.20732875 -.00000123  00000-0 -37232-4 0  9990
2 22803  70.9910   0.3654 0017677 192.3055 167.7639 14.16829630414147
Epoch (UTC): 21 January 2021 04:58:33
Eccentricity: 0.0017677
inclination: 70.9910°
perigee height: 823 km
apogee height: 849 km
right ascension of ascending node: 0.3654°
argument of perigee: 192.3055°
revolutions per day: 14.16829630
mean anomaly at epoch: 167.7639°
orbit number at epoch: 41414

The dashed part of the orbit path shows where the satellite is in the earth's shadow,  

DLR